{"data":{"norad_id":60203,"epoch":"2026-09-22T14:18:22.075776Z","epoch_age_seconds":100002,"freshness":"FRESH","line1":"1 60203U 24125A   26265.59608884  .00144704  00000+0  64937-3 0  9995","line2":"2 60203  97.2026 127.6652 0006423 175.2901 184.8431 15.83721589124957","mean_motion":15.83721589,"eccentricity":0.0006423,"inclination_deg":97.2026,"raan_deg":127.6652,"arg_perigee_deg":175.2901,"mean_anomaly_deg":184.8431,"bstar":0.00064937,"rev_number":12495,"period_min":90.9250723108,"perigee_km":315.62468594235,"apogee_km":324.22901876708,"semimajor_km":6698.0638523547,"source":"CELESTRAK","updated_at":"2026-09-23T09:00:20.458409Z"}}